DELTON-WX Weather Reports


time (UTC)temp
C
wind
direction
speed
KPH
gust
KPH
rain 1hr
cm
rain 24hr
cm
rain mn
cm
humidity
%
barometer
mb
20260505180122 11 266 16.1 0.0 0.00 0.20 0.20 43 975.2
20260505174548 11 266 17.7 0.0 0.00 0.20 0.20 48 974.6
20260505173104 10 266 12.9 0.0 0.00 0.20 0.20 47 973.9
20260505171549 10 273 14.5 0.0 0.00 0.20 0.20 47 973.9
20260505170120 11 280 16.1 0.0 0.00 0.20 0.20 47 973.9
20260505164549 10 278 17.7 0.0 0.00 0.20 0.20 54 974.7
20260505163107 10 278 17.7 0.0 0.00 0.20 0.20 58 973.0
20260505161548 10 282 17.7 0.0 0.00 0.20 0.20 58 973.0
20260505160122 9 278 17.7 0.0 0.00 0.20 0.20 58 973.0
20260505153110 8 276 19.3 0.0 0.00 0.20 0.20 55 973.8
20260505151548 9 280 19.3 0.0 0.00 0.23 0.23 55 973.7
20260505150130 8 285 19.3 0.0 0.00 0.23 0.23 55 973.7
20260505140130 8 294 22.5 0.0 0.00 0.03 0.03 60 973.6
20260505130121 9 301 14.5 0.0 0.00 0.00 0.00 71 973.4
20260505124547 10 301 16.1 0.0 0.00 0.03 0.03 72 972.5
20260505123107 9 298 17.7 0.0 0.00 0.03 0.03 73 971.0
20260505121548 8 285 17.7 0.0 0.00 0.03 0.03 73 971.0
20260505120135 8 282 20.9 0.0 0.00 0.03 0.03 73 971.0
20260505114548 8 280 17.7 0.0 0.00 0.00 0.00 72 971.1
20260505113105 8 282 14.5 0.0 0.00 0.00 0.00 68 969.9
20260505111548 8 271 14.5 0.0 0.00 0.03 0.03 68 969.9
20260505110126 8 261 12.9 0.0 0.00 0.03 0.03 68 969.9
20260505101547 10 266 16.1 0.0 0.00 0.00 0.00 66 968.6
20260505100125 10 269 16.1 0.0 0.00 0.00 0.00 66 968.6
20260505094547 10 260 9.7 0.0 0.00 0.00 0.00 77 968.7
20260505093110 10 256 9.7 0.0 0.00 0.00 0.00 78 968.6
20260505091548 10 266 17.7 0.0 0.00 0.00 0.00 78 968.5
20260505090128 10 257 12.9 0.0 0.00 0.00 0.00 78 968.5
20260505084545 10 278 17.7 0.0 0.00 0.00 0.00 74 968.6
20260505083106 10 275 17.7 0.0 0.00 0.00 0.00 72 967.8
20260505081547 10 268 17.7 0.0 0.00 0.00 0.00 72 967.8
20260505080119 11 261 19.3 0.0 0.00 0.00 0.00 76 968.3
20260505074548 11 253 19.3 0.0 0.00 0.00 0.00 82 967.7
20260505073108 11 237 16.1 0.0 0.00 0.00 0.00 82 967.7
20260505071548 12 241 19.3 0.0 0.00 0.00 0.00 82 967.7
20260505070121 12 236 17.7 0.0 0.00 0.00 0.00 82 967.7
20260505064547 12 262 17.7 0.0 0.00 0.00 0.00 82 968.2
20260505063104 13 259 19.3 0.0 0.00 0.00 0.00 82 967.6
20260505061548 13 248 20.9 0.0 0.00 0.00 0.00 82 967.6
20260505060133 13 250 19.3 0.0 0.00 0.00 0.00 82 967.6
20260505054548 13 257 20.9 0.0 0.00 0.00 0.00 78 968.4
20260505053111 13 257 19.3 0.0 0.00 0.00 0.00 71 967.6
20260505051547 13 213 14.5 0.0 0.00 0.00 0.00 71 967.6
20260505050120 15 220 17.7 0.0 0.00 0.00 0.00 71 967.6
20260505041548 15 205 22.5 0.0 0.00 0.00 0.00 77 967.5
20260505040125 15 210 16.1 0.0 0.00 0.00 0.00 77 967.5
20260505034544 15 207 16.1 0.0 0.00 0.00 0.00 73 967.1
20260505033107 15 190 20.9 0.0 0.00 0.00 0.00 66 967.1
20260505031547 15 186 24.1 0.0 0.00 0.00 0.00 66 967.1
20260505030121 15 195 30.6 0.0 0.00 0.00 0.00 66 967.1
20260505024548 15 201 33.8 0.0 0.00 0.00 0.00 69 967.9
20260505023107 16 205 30.6 0.0 0.00 0.00 0.00 51 967.8
20260505021546 17 215 32.2 0.0 0.00 0.00 0.00 51 967.8
20260505020120 17 219 32.2 0.0 0.00 0.00 0.00 51 967.8
20260505014547 17 210 25.7 0.0 0.00 0.00 0.00 69 966.9
20260505013105 17 217 22.5 0.0 0.00 0.00 0.00 69 966.9
20260505011548 17 210 27.4 0.0 0.00 0.00 0.00 69 966.8
20260505010117 17 209 25.7 0.0 0.00 0.00 0.00 69 966.8
20260505004547 17 208 27.4 0.0 0.00 0.00 0.00 42 967.2
20260505003103 18 214 24.1 0.0 0.00 0.00 0.00 46 968.0
20260505001546 19 207 20.9 0.0 0.00 0.00 0.00 46 968.0
20260505000126 20 211 16.1 0.0 0.00 0.00 0.00 46 968.0
20260504234547 20 229 14.5 0.0 0.00 0.00 0.00 39 967.6
20260504233105 21 237 17.7 0.0 0.00 0.00 0.00 37 967.7
20260504231547 21 250 17.7 0.0 0.00 0.00 0.00 37 967.7
20260504230113 21 255 20.9 0.0 0.00 0.00 0.00 37 967.7
20260504224547 21 259 24.1 0.0 0.00 0.00 0.00 38 967.2
20260504223107 22 255 27.4 0.0 0.00 0.00 0.00 37 967.5
20260504221547 22 257 27.4 0.0 0.00 0.00 0.00 37 967.5
20260504220124 22 252 29.0 0.0 0.00 0.00 0.00 37 967.5
20260504214545 22 249 29.0 0.0 0.00 0.00 0.00 35 968.7
20260504213108 22 256 27.4 0.0 0.00 0.00 0.00 35 968.7
20260504211546 22 254 29.0 0.0 0.00 0.00 0.00 37 967.7
20260504210120 22 248 29.0 0.0 0.00 0.00 0.00 37 967.7
20260504204551 22 246 30.6 0.0 0.00 0.00 0.00 37 968.3
20260504203102 22 241 29.0 0.0 0.00 0.00 0.00 37 968.3
20260504201553 22 235 29.0 0.0 0.00 0.00 0.00 37 968.3
20260504200117 22 233 30.6 0.0 0.00 0.00 0.00 37 967.7
20260504194553 22 227 32.2 0.0 0.00 0.00 0.00 41 968.9
20260504193111 22 222 30.6 0.0 0.00 0.00 0.00 41 968.9
20260504191553 22 224 29.0 0.0 0.00 0.00 0.00 41 968.8
20260504190122 22 225 30.6 0.0 0.00 0.00 0.00 41 968.8
20260504184548 22 224 30.6 0.0 0.00 0.00 0.00 31 969.9
20260504183113 22 227 30.6 0.0 0.00 0.00 0.00 32 969.5
20260504181552 22 227 29.0 0.0 0.00 0.00 0.00 32 969.5